Temp
1 1 1 2 2 3 3 3 4 4 4 4 4 4 4 4 4 3 3 2 2 2 5 7 8 8 7 7 6 7 6 6 6 6 6 7 7 11 11 12 12 11 10 9 9 10 10 11 13 12 10 12 11 10
1 1 1 2 2 3 3 3 4 4 4 5 4 4 4 4 4 3 3 3 3 3 3 4 5 6 7 8 7 7 7 7 7 7 7 8 7 7 9 10 12 10 11 9 11 10 9 10 11 12 11 10 10 10
1 1 2 2 2 3 3 3 4 4 4 4 4 4 4 4 4 4 3 3 3 2 3 3 5 7 8 8 7 6 5 7 8 8 7 8 8 10 8 10 11 12 12 12 11 12 10 10 10 11 11 10 10 10
1 1 2 2 3 3 3 4 4 4 4 4 4 4 4 4 4 4 3 3 3 4 2 4 9 7 8 10 9 8 9 10 8 7 7 7 8 9 9 10 10 9 9 11 11 10 10 9 9 9 9 10 10 9
1 1 2 3 3 3 4 4 4 5 4 4 4 4 4 4 4 4 3 4 4 4 4 5 8 10 10 9 10 9 8 8 7 6 6 8 9 9 9 10 8 8 7 8 8 5 9 8 8 8 8 8 9 7
1 2 2 3 3 4 3 4 4 4 4 4 4 4 4 4 4 4 2 3 4 5 4 5 7 8 10 10 10 8 8 7 7 7 6 8 10 9 8 8 7 7 8 6 6 7 8 8 8 7 7 7 7 6
2 2 3 3 3 4 3 4 4 5 5 4 4 4 4 4 4 3 4 4 3 4 4 4 6 8 10 9 7 7 7 7 7 6 6 7 8 8 7 7 4 3 4 6 6 7 7 7 6 5 5 6 5 4
2 2 3 3 3 3 3 5 5 5 5 4 4 5 5 4 3 3 5 5 4 5 5 5 6 7 9 7 7 7 7 7 6 6 7 8 8 7 5 4 3 2 4 3 4 6 6 6 6 4 3 3 3 1
2 2 3 4 3 3 3 5 5 5 5 4 5 5 3 2 2 4 5 4 5 6 4 3 5 7 7 6 6 7 6 5 5 5 7 7 5 3 2 2 1 1 2 1 3 2 3 3 3 3 1 1 0 -1
2 2 4 4 4 3 4 4 5 4 5 4 4 2 2 4 4 4 4 3 4 5 5 5 6 6 6 6 6 6 5 6 7 6 7 4 2 1 2 1 1 0 0 0 -0 -0 -0 -0 0 -0 -1 -1 -2 -3
2 3 4 4 4 3 3 4 4 4 4 4 3 3 4 5 4 4 3 4 4 4 4 5 7 6 5 6 5 5 6 6 5 6 7 5 3 1 -0 -1 -1 -1 -1 -2 -2 -3 -3 -3 -2 -3 -4 -4 -5 -5
2 3 4 5 5 4 4 4 4 4 5 5 4 4 4 5 4 5 4 4 4 5 4 4 5 6 5 5 5 5 6 6 7 6 7 2 0 -0 -0 -1 -2 -3 -3 -4 -4 -5 -6 -6 -5 -5 -5 -6 -7 -7
2 4 5 6 5 4 5 5 4 6 6 7 6 4 5 3 4 4 5 5 5 4 4 4 5 4 4 4 5 6 6 7 3 5 1 -1 -1 -2 -2 -2 -3 -4 -4 -5 -6 -6 -7 -8 -8 -8 -9 -9 -9 -10
3 3 4 5 6 5 6 6 6 7 6 4 3 -1 1 3 1 1 2 2 1 2 2 3 4 5 4 5 5 6 5 4 6 3 -1 -2 -3 -3 -3 -3 -5 -6 -6 -6 -8 -8 -8 -9 -9 -9 -10 -10 -10 -11
3 3 3 4 4 5 5 5 6 5 2 1 2 1 0 0 0 -0 1 1 0 1 2 3 4 4 4 3 4 4 4 2 1 -2 -3 -3 -4 -4 -5 -5 -6 -7 -8 -9 -8 -9 -9 -10 -10 -10 -11 -11 -11 -11
3 3 3 4 4 5 5 4 3 3 1 0 -1 1 0 1 -1 -2 -2 -1 -0 -0 1 2 4 3 2 2 2 -1 3 -1 -2 -3 -4 -5 -6 -6 -7 -6 -7 -7 -7 -8 -8 -9 -10 -10 -11 -11 -11 -11 -11 -12
4 4 4 4 5 5 5 4 3 1 1 0 -1 -2 -1 -1 -2 -2 -1 -1 -1 1 3 3 3 3 3 2 -0 -1 -2 -3 -4 -5 -5 -6 -6 -7 -7 -6 -7 -7 -8 -8 -8 -8 -9 -9 -10 -10 -11 -11 -12 -12
4 4 4 4 5 5 5 4 1 1 -1 -1 -2 -2 -2 -2 -1 -2 -1 -1 -0 1 1 1 2 -0 -1 -0 -2 -3 -5 -5 -5 -5 -7 -8 -7 -6 -6 -7 -6 -7 -7 -8 -8 -9 -9 -9 -10 -11 -11 -11 -12 -12
4 4 4 4 5 5 2 2 2 -0 -1 -1 -1 -2 -2 -2 -2 -2 -2 -2 -1 -1 -1 -2 -4 -3 -3 -3 -4 -4 -5 -6 -6 -6 -7 -6 -6 -6 -6 -6 -7 -7 -7 -7 -8 -8 -8 -8 -9 -9 -10 -10 -11 -12
4 4 4 5 5 4 3 1 3 0 -1 -2 -2 -2 -2 -2 -2 -3 -3 -2 -2 -3 -4 -5 -5 -6 -5 -5 -5 -5 -5 -5 -5 -6 -7 -6 -6 -6 -6 -6 -7 -7 -7 -8 -8 -8 -9 -9 -10 -10 -10 -10 -11 -12
5 5 5 5 4 4 2 1 1 -0 -0 -1 -1 -0 -2 -2 -3 -4 -5 -3 -5 -5 -6 -6 -6 -7 -7 -6 -5 -6 -6 -6 -4 -6 -6 -6 -5 -5 -6 -6 -6 -6 -7 -8 -8 -9 -9 -10 -10 -11 -11 -12 -12 -12
5 5 4 4 2 2 1 2 1 1 0 0 -0 1 -1 -4 -5 -5 -4 -6 -6 -7 -7 -6 -8 -9 -8 -8 -7 -6 -5 -6 -6 -6 -6 -6 -7 -7 -7 -7 -7 -8 -8 -8 -9 -10 -10 -10 -11 -11 -12 -13 -13 -13
4 4 4 3 -0 -1 -0 3 1 2 0 0 1 -0 -2 -4 -2 -2 -7 -5 -6 -7 -6 -7 -6 -6 -7 -6 -6 -6 -6 -6 -7 -7 -7 -8 -8 -8 -8 -9 -8 -9 -9 -10 -10 -11 -11 -11 -11 -12 -12 -13 -13 -13
3 -1 -1 -1 -0 -1 -1 -0 2 1 0 -0 -1 -3 -3 -3 -3 -6 -6 -6 -7 -5 -6 -6 -5 -7 -6 -7 -9 -8 -7 -7 -7 -7 -7 -8 -8 -9 -9 -9 -9 -10 -10 -10 -11 -11 -11 -11 -11 -12 -12 -12 -13 -13
-2 -4 -3 -2 -0 -2 -2 -2 -1 -0 -2 -2 -4 -4 -4 -2 -6 -7 -7 -6 -6 -7 -7 -5 -5 -6 -9 -11 -8 -8 -8 -8 -8 -9 -9 -9 -8 -9 -10 -10 -11 -11 -10 -11 -11 -12 -12 -12 -12 -12 -12 -12 -13 -13
-5 -5 -3 -1 -2 -1 -1 -2 -2 -3 -5 -6 -5 -4 -4 -6 -7 -7 -5 -7 -9 -6 -7 -7 -7 -8 -8 -8 -9 -10 -11 -9 -9 -10 -10 -11 -11 -12 -11 -11 -12 -12 -12 -12 -12 -12 -12 -13 -13 -13 -13 -13 -13 -13
-5 -5 -2 -1 0 -0 -3 -3 -2 -4 -5 -6 -5 -5 -7 -9 -9 -7 -7 -7 -9 -7 -7 -7 -7 -7 -9 -10 -10 -11 -11 -11 -11 -11 -12 -12 -13 -13 -13 -13 -14 -14 -13 -13 -13 -12 -12 -13 -13 -13 -14 -14 -14 -14
-4 -3 -6 -5 -5 -3 -6 -6 -6 -6 -6 -4 -6 -8 -9 -9 -8 -7 -9 -8 -8 -8 -9 -9 -9 -9 -9 -10 -11 -11 -11 -11 -11 -12 -12 -13 -13 -14 -14 -14 -14 -14 -14 -14 -13 -13 -13 -13 -13 -13 -13 -14 -14 -14
-6 -5 -7 -10 -8 -7 -7 -7 -8 -7 -6 -6 -9 -10 -9 -8 -8 -8 -8 -8 -8 -9 -9 -10 -10 -10 -10 -11 -11 -12 -12 -12 -11 -16 -16 -14 -14 -14 -14 -14 -14 -14 -15 -14 -14 -14 -14 -14 -14 -14 -14 -15 -15 -15
-6 -5 -8 -10 -11 -8 -7 -8 -9 -10 -9 -9 -9 -8 -8 -9 -8 -8 -8 -8 -8 -9 -9 -9 -10 -10 -11 -12 -13 -14 -14 -14 -14 -14 -16 -16 -15 -14 -15 -15 -15 -15 -15 -15 -15 -15 -15 -15 -15 -15 -15 -15 -15 -15
-4 -6 -8 -8 -9 -7 -7 -7 -7 -7 -9 -9 -10 -11 -11 -12 -10 -10 -9 -9 -9 -9 -10 -10 -10 -11 -11 -12 -12 -14 -16 -15 -15 -15 -15 -15 -15 -15 -16 -16 -16 -16 -16 -16 -16 -16 -16 -16 -16 -15 -15 -15 -16 -16
-6 -8 -10 -10 -8 -7 -7 -6 -8 -9 -9 -10 -11 -12 -12 -13 -13 -11 -10 -10 -9 -10 -10 -10 -12 -14 -13 -13 -14 -14 -15 -16 -16 -16 -16 -16 -16 -17 -17 -17 -17 -17 -17 -16 -17 -16 -16 -16 -16 -17 -16 -17 -17 -17
-7 -7 -8 -10 -10 -9 -8 -8 -7 -7 -9 -10 -10 -10 -11 -12 -12 -12 -11 -11 -11 -11 -11 -12 -13 -14 -14 -14 -15 -15 -16 -16 -16 -17 -17 -17 -17 -17 -17 -17 -17 -18 -18 -17 -17 -17 -17 -17 -18 -18 -18 -18 -18 -18
Height
722 720 717 714 711 708 705 703 701 699 699 700 701 706 710 715 721 727 731 735 740 739 733 729 729 729 731 732 736 732 734 734 736 738 739 734 733 709 705 698 698 709 719 727 730 724 722 705 698 707 720 709 710 709
714 712 709 705 702 699 696 694 693 692 692 693 695 698 704 709 715 722 728 729 736 738 733 730 725 725 727 728 733 729 729 731 731 733 728 723 730 722 717 708 698 712 703 717 713 714 717 712 713 712 713 715 714 712
706 703 700 697 693 690 687 685 683 683 684 685 688 692 696 703 709 716 722 726 732 735 732 729 719 716 719 719 722 730 732 728 720 719 723 722 724 713 722 709 702 699 702 703 705 706 712 715 716 715 716 714 715 716
698 695 691 687 683 680 677 675 674 674 675 677 679 684 689 696 704 711 717 721 727 730 732 716 706 706 704 711 715 719 716 715 716 719 724 727 724 716 717 712 710 715 715 706 706 711 713 718 722 722 721 718 717 719
689 686 681 677 673 670 667 665 663 663 665 668 672 676 682 690 699 708 714 717 721 724 723 713 702 698 698 703 708 711 714 717 720 725 728 726 718 719 717 710 720 722 727 720 723 732 717 725 727 723 723 722 720 721
681 677 673 668 664 660 656 651 647 647 650 655 662 668 675 684 695 705 711 715 716 721 724 714 702 694 693 697 702 706 710 715 718 721 726 719 712 717 717 720 732 730 730 733 736 728 727 727 729 728 726 726 726 726
673 669 665 661 658 652 646 637 632 631 635 642 652 661 669 679 687 696 699 698 707 720 719 716 704 692 690 695 701 705 707 714 717 724 725 721 718 717 721 725 742 744 741 736 734 731 731 731 733 734 735 732 732 734
666 663 659 656 652 645 635 622 613 613 623 634 646 657 666 675 686 694 694 694 703 714 715 713 701 697 690 697 701 704 709 713 718 721 720 716 716 719 734 743 745 749 743 745 741 737 736 734 735 738 739 738 738 740
662 658 655 653 649 642 631 619 603 605 620 634 647 658 666 676 683 689 695 698 704 710 710 711 706 693 694 698 701 705 709 716 717 717 713 713 725 741 747 750 751 752 752 752 748 747 744 744 743 743 744 746 747 748
657 655 653 651 649 642 636 629 625 626 630 641 651 661 672 674 680 691 698 704 707 706 702 699 694 697 698 700 704 707 711 711 710 713 708 727 749 752 752 754 755 757 758 757 755 754 754 754 753 751 751 752 753 754
655 653 652 650 648 645 642 640 640 641 643 647 656 662 668 675 684 692 697 698 703 703 699 693 689 696 699 698 703 704 706 709 714 709 707 722 742 754 759 761 762 763 763 764 763 764 764 762 759 758 759 759 759 759
653 651 650 649 648 646 645 644 645 646 646 650 656 667 673 680 684 687 693 694 696 693 693 696 696 695 701 701 701 704 702 707 707 705 709 741 758 761 761 764 767 768 768 768 768 768 769 767 765 765 765 764 765 765
651 651 649 649 649 647 645 648 651 652 653 657 663 673 674 683 681 685 685 689 690 695 696 696 696 699 703 706 704 701 704 704 712 715 743 758 763 765 766 767 770 771 771 771 772 772 772 771 769 769 770 770 770 770
652 651 650 650 652 652 653 654 655 656 657 665 673 696 692 690 700 703 701 700 707 705 703 701 700 700 706 706 705 701 708 710 707 726 758 763 767 769 770 771 772 774 774 775 775 775 775 775 775 775 775 775 774 775
653 652 652 652 654 655 654 653 653 653 665 678 682 695 705 707 708 710 706 706 710 709 707 704 704 705 708 712 709 711 713 731 740 758 763 768 771 772 773 774 775 776 777 778 778 779 779 779 779 780 780 780 779 780
653 654 655 655 655 656 656 656 657 664 681 692 704 702 706 708 715 716 715 715 712 711 709 708 704 710 717 718 722 741 723 749 759 762 769 773 775 776 777 778 778 779 779 781 781 782 783 783 784 784 784 784 785 786
653 655 657 657 658 657 656 659 669 683 694 704 716 717 714 717 721 720 717 716 712 709 704 706 709 714 716 725 741 747 756 763 769 772 774 775 778 779 779 780 781 782 783 784 785 786 787 787 787 788 789 791 791 792
655 657 658 658 658 658 662 670 683 697 711 717 721 724 724 724 723 722 719 717 711 709 712 720 722 734 743 743 756 764 770 772 773 776 779 780 780 781 781 783 783 784 786 787 788 789 790 791 791 792 793 794 795 796
655 658 660 661 660 664 674 684 691 707 719 721 724 726 726 727 726 725 721 717 717 716 722 736 751 757 761 761 766 769 771 774 778 780 782 782 782 783 784 785 786 787 788 789 790 791 791 792 792 793 794 795 797 798
659 662 663 663 664 669 681 692 696 707 718 727 727 729 729 731 732 732 731 727 726 733 748 759 769 774 771 771 772 773 773 774 777 781 783 783 784 785 786 787 788 789 791 792 793 793 794 795 795 796 796 797 799 801
663 665 665 666 668 673 685 695 703 711 719 723 726 726 734 736 738 739 739 738 741 755 768 776 779 780 779 778 777 777 777 776 777 780 783 785 786 787 787 788 788 790 792 793 794 796 796 797 798 799 799 801 802 803
665 666 668 669 676 685 694 697 703 708 715 720 724 724 732 742 745 746 749 754 769 779 778 780 782 783 783 783 783 783 783 783 784 785 786 787 789 789 790 791 792 793 794 795 796 798 799 800 800 801 802 803 805 806
666 668 671 675 686 695 708 702 705 707 717 721 722 728 738 744 743 747 766 774 782 784 784 784 785 786 787 788 788 788 788 788 789 789 790 791 792 793 794 794 794 796 797 799 799 800 801 801 802 803 804 805 806 807
670 676 684 688 693 704 705 708 705 710 717 722 729 740 744 745 747 764 777 782 786 785 786 786 786 788 790 791 792 793 791 791 792 793 794 794 795 797 797 798 799 799 800 800 801 802 803 803 804 804 805 806 807 808
684 700 696 701 696 707 714 715 715 716 728 730 741 749 749 742 761 774 782 783 785 786 786 785 786 788 792 794 794 795 795 795 795 796 798 797 797 798 799 800 801 802 801 802 803 803 804 805 805 806 806 807 808 809
706 708 705 701 705 705 708 718 720 728 736 747 749 745 745 758 773 780 777 785 788 787 788 788 789 791 794 795 797 798 798 797 797 798 801 801 800 800 800 801 803 804 804 804 804 804 805 806 806 807 808 808 809 810
712 715 707 703 701 703 715 718 718 728 739 748 747 750 758 779 787 783 782 784 787 789 790 790 791 792 796 798 800 800 800 800 800 802 803 803 803 803 803 803 804 806 805 804 804 804 805 806 806 807 808 809 809 810
710 710 723 719 720 717 728 733 737 742 744 737 747 765 772 776 779 780 783 787 789 790 793 794 796 797 798 800 801 802 803 803 804 804 805 806 806 806 806 806 806 806 806 806 806 806 805 806 807 807 808 808 809 810
719 719 724 738 734 737 742 744 747 745 744 742 760 770 774 774 779 783 786 788 790 793 795 797 800 800 801 802 803 803 803 803 803 805 805 806 808 809 808 808 808 808 808 807 807 807 807 807 808 808 808 809 809 809
722 720 733 744 752 752 748 747 751 749 748 751 758 769 775 782 786 787 788 790 792 794 796 798 799 801 801 803 804 805 805 805 805 806 807 808 809 809 809 809 809 809 809 808 808 808 808 808 808 809 809 809 809 809
716 722 735 745 754 755 753 752 752 754 755 761 765 771 777 786 790 791 791 792 793 795 797 799 800 801 801 803 804 805 807 808 808 808 808 808 808 809 809 809 810 809 809 809 809 809 809 809 809 808 808 808 808 808
723 731 743 754 757 755 755 753 756 761 764 768 774 775 780 784 793 793 794 794 795 796 796 798 800 802 803 803 804 805 806 807 808 808 809 809 809 809 810 810 809 809 809 809 809 809 809 809 809 809 808 808 807 807
733 736 741 750 758 759 754 755 757 763 767 772 774 774 778 782 791 793 794 794 793 793 796 798 800 802 803 804 806 807 807 808 808 809 809 809 809 809 809 809 809 809 809 809 809 809 809 809 809 809 808 808 807 806
Wind_Speed
26 27 29 31 29 31 28 26 27 23 19 20 21 24 23 23 25 29 14 23 17 3 5 6 9 10 7 4 2 3 4 1 1 2 3 3 2 3 3 9 7 5 6 4 3 2 6 13 6 5 4 8 9 7
27 30 31 30 31 29 27 30 27 23 22 19 20 26 25 25 25 30 9 24 25 4 3 6 19 25 16 5 4 3 1 3 4 2 3 2 2 2 2 3 3 1 5 4 6 4 3 9 11 8 8 5 6 8
28 30 31 30 31 29 31 29 27 26 22 21 19 23 28 27 27 31 21 22 17 2 6 6 10 26 26 22 23 3 1 4 3 3 1 2 1 1 2 2 2 3 6 2 2 9 10 11 9 7 8 8 8 9
28 31 30 31 30 31 31 28 26 24 21 19 22 24 29 30 29 30 24 21 16 2 3 6 18 13 24 23 16 27 6 7 1 3 2 0 1 3 1 4 3 3 5 4 5 13 13 13 10 6 8 8 7 10
29 30 31 29 31 29 27 29 30 30 28 26 22 24 28 33 30 29 27 25 26 5 2 4 10 18 14 21 17 26 11 2 1 2 1 2 2 2 2 1 3 4 4 4 3 7 9 8 8 12 10 11 9 11
28 29 26 29 20 21 27 28 30 34 33 30 27 26 28 32 30 21 2 24 31 23 3 3 4 5 15 19 12 6 5 3 2 2 1 3 5 1 1 2 5 10 9 11 4 7 11 8 11 11 11 12 12 13
26 24 24 16 12 23 31 31 26 27 26 27 28 27 30 34 36 7 3 8 37 23 2 3 3 5 14 7 3 3 3 3 2 2 3 1 2 3 1 2 5 8 9 12 11 10 8 8 6 11 11 11 17 16
21 20 17 14 18 28 32 24 23 21 27 25 28 27 29 33 25 11 3 2 37 9 2 2 3 2 6 3 3 2 3 3 3 3 2 2 2 2 3 6 8 8 6 12 12 11 10 10 11 11 14 12 12 11
14 15 14 11 16 24 29 20 12 21 29 30 30 29 22 7 4 10 4 23 20 5 3 3 2 2 2 1 3 2 2 2 2 3 3 3 3 4 4 6 7 9 8 9 10 12 13 12 11 9 10 11 10 9
10 8 4 5 11 14 22 24 22 25 36 37 23 7 3 9 37 28 5 2 1 3 2 2 1 1 0 1 2 2 2 2 3 3 1 3 3 4 7 8 8 8 9 9 7 10 9 9 8 8 10 9 8 7
6 2 2 7 9 5 12 20 27 27 19 6 3 2 29 29 8 2 2 3 3 3 3 3 3 3 2 2 2 2 2 3 2 3 4 3 3 3 9 10 8 9 9 9 9 10 10 9 8 8 9 9 10 10
3 4 7 6 10 4 9 19 16 4 1 9 16 12 6 3 2 3 3 3 4 4 2 2 1 3 2 2 1 1 3 2 3 2 2 3 3 7 8 10 10 8 9 9 12 10 11 12 11 10 10 10 10 11
7 5 7 10 13 19 15 11 23 30 26 10 5 3 0 1 3 3 6 2 3 2 2 1 2 2 2 2 1 1 3 3 3 3 3 2 6 7 7 7 9 10 10 11 12 13 13 13 16 14 13 15 17 17
6 7 9 13 13 13 12 10 6 5 5 3 3 5 3 4 4 3 2 2 2 2 4 2 2 2 1 1 1 2 2 2 3 3 2 3 6 6 6 7 7 7 7 7 8 11 12 12 13 16 17 17 17 17
7 9 9 11 11 12 11 11 12 9 7 4 5 4 3 1 4 4 2 2 2 2 2 1 2 1 1 2 2 1 2 4 4 2 2 4 6 6 6 6 6 5 5 5 11 10 12 14 15 17 19 21 22 21
6 4 7 9 8 7 7 11 9 6 3 3 6 3 2 4 4 3 3 2 2 2 1 1 2 2 3 2 4 4 3 4 2 4 5 5 5 5 4 5 5 10 12 11 13 13 15 15 15 16 20 21 20 20
7 2 13 19 17 10 5 7 7 5 4 4 3 4 4 4 3 2 3 3 2 2 2 2 3 4 2 3 3 4 3 4 5 5 4 5 5 4 4 7 11 13 13 12 12 11 12 15 16 16 15 16 18 19
4 13 16 8 6 10 8 7 4 4 6 4 4 3 3 2 2 3 3 5 4 2 2 3 3 5 4 3 2 3 4 5 5 5 4 4 7 10 11 10 12 12 12 13 15 17 18 16 13 12 15 16 15 15
10 14 9 8 8 5 3 4 5 4 4 2 2 1 1 2 3 5 5 4 5 7 3 3 5 3 2 3 4 4 4 3 4 4 3 9 10 11 12 11 12 11 11 12 11 11 12 11 11 11 12 12 11 12
19 15 11 6 6 4 4 3 5 4 3 2 2 4 2 3 4 4 7 7 6 3 5 4 4 3 4 7 7 5 2 4 5 5 2 2 7 8 9 10 11 13 13 13 13 14 13 13 15 15 13 12 12 12
12 8 6 6 5 12 4 3 3 3 4 2 3 2 4 5 6 5 4 5 5 3 3 3 5 4 10 11 15 13 11 12 5 3 3 4 9 10 10 11 9 11 11 11 10 11 12 10 11 12 13 14 14 15
3 4 4 7 4 4 4 7 4 4 3 3 3 2 3 2 2 3 3 6 4 4 3 4 3 2 5 6 9 15 15 17 16 15 14 9 4 5 7 11 13 10 12 11 11 10 10 9 9 11 14 12 12 11
5 5 4 4 5 4 1 2 3 3 3 3 2 3 3 2 2 3 3 3 3 3 8 7 10 13 11 13 14 16 15 14 10 11 13 13 14 14 14 15 11 11 9 10 9 9 9 9 10 10 9 8 13 12
5 5 4 3 4 3 2 3 2 3 3 2 3 3 3 1 3 3 3 2 1 6 3 5 9 4 9 11 4 11 9 14 15 17 11 12 11 11 12 12 12 12 9 10 10 9 6 7 5 8 9 9 9 9
6 7 4 4 2 4 4 2 2 3 3 2 3 3 0 2 3 3 2 2 2 2 1 7 8 6 4 2 9 12 14 12 10 10 16 12 5 11 11 9 10 12 8 10 11 10 8 7 7 7 8 8 10 9
6 4 4 2 2 4 3 3 3 3 3 3 2 1 1 3 4 3 2 3 2 2 4 4 2 4 6 10 6 9 11 10 9 13 12 13 13 11 6 8 8 9 9 8 5 8 8 8 7 5 6 6 7 6
4 3 2 2 1 3 3 3 4 4 4 3 2 3 3 4 3 2 2 4 3 13 14 14 13 12 9 12 12 8 8 11 12 11 8 7 9 9 9 11 8 7 4 6 10 6 7 5 4 3 6 4 4 5
2 3 4 4 4 4 4 3 3 2 2 1 3 4 3 3 2 2 2 12 17 16 16 15 17 18 15 12 9 7 5 6 8 9 11 13 12 12 13 11 8 7 4 3 3 6 8 6 4 3 4 5 6 2
3 2 4 6 5 5 5 3 2 2 2 1 4 3 2 2 3 8 16 17 15 15 15 14 12 10 10 8 7 6 5 6 7 1 1 4 5 7 5 5 4 7 2 6 5 2 1 2 4 5 4 5 5 2
1 2 4 4 4 4 3 2 2 2 3 5 4 8 8 8 13 13 12 10 11 13 13 10 9 11 10 12 11 8 8 6 8 11 4 3 5 6 6 6 5 4 7 4 4 5 4 6 4 2 0 1 1 2
3 3 4 4 3 2 6 10 15 11 4 6 5 6 4 3 6 14 14 14 14 13 12 11 10 7 9 10 8 11 6 6 8 9 9 6 5 3 1 1 0 2 3 2 2 5 4 1 4 5 2 2 3 3
3 3 4 4 2 1 2 2 2 3 2 2 2 2 2 3 3 1 3 5 7 8 8 14 14 11 6 6 8 7 8 8 6 5 5 6 4 3 4 3 2 2 2 0 3 3 2 3 4 5 5 4 6 7
5 6 5 4 3 3 3 3 2 3 3 2 2 1 2 3 3 3 5 4 3 16 16 13 11 11 10 7 6 5 4 4 5 4 3 2 2 4 3 2 1 1 2 2 3 2 3 2 2 4 5 5 5 7
Wind_Direction
285 288 293 300 297 302 300 297 294 288 280 268 249 238 232 222 211 195 209 205 203 246 261 259 253 254 270 265 238 268 58 77 4 167 188 234 239 263 322 230 163 155 167 187 192 234 255 340 73 52 272 22 27 5
284 291 297 299 297 301 299 300 288 280 279 274 246 228 227 219 211 195 204 197 203 224 296 269 266 261 268 252 266 298 101 152 210 182 235 297 327 339 161 299 101 92 192 172 175 179 119 55 90 38 47 53 8 4
286 292 298 296 299 297 297 291 287 279 271 256 239 229 219 220 210 198 194 176 178 180 263 251 250 261 251 242 225 154 255 259 217 189 87 249 290 19 319 286 102 49 9 322 78 130 109 106 89 54 33 38 20 23
290 294 295 297 297 294 293 288 283 273 267 255 237 228 218 213 211 199 192 184 180 164 227 268 253 235 237 225 203 225 207 211 161 89 98 4 276 25 309 277 91 12 352 313 95 97 93 61 52 31 35 25 39 40
290 294 298 300 299 295 289 284 278 271 263 255 239 225 218 206 207 200 195 202 192 188 251 269 283 265 231 209 219 205 225 167 104 73 84 248 273 115 197 266 52 11 26 336 66 328 92 85 49 31 28 12 20 55
292 296 301 301 302 303 306 306 278 264 254 244 231 219 208 201 191 171 151 210 210 219 300 292 310 279 211 195 195 203 194 164 108 117 236 275 199 227 314 101 50 32 71 51 37 324 62 87 64 33 29 3 63 57
293 301 302 304 310 320 322 315 282 258 240 223 212 205 197 192 176 165 177 192 192 195 241 279 288 274 170 154 176 155 107 109 94 166 201 242 320 29 216 89 65 23 5 31 11 356 50 38 64 45 33 16 59 61
300 302 298 286 305 325 327 321 291 237 209 194 187 186 185 182 159 193 249 163 168 172 253 248 239 269 152 162 138 103 122 108 154 181 227 208 146 89 90 89 60 27 4 32 359 355 28 47 50 52 44 25 50 49
302 306 303 294 333 332 351 16 62 144 157 158 159 161 130 114 123 144 181 158 158 166 209 195 223 188 335 60 101 100 108 137 312 185 219 113 65 44 67 70 58 38 28 4 353 31 29 34 24 34 57 43 48 49
312 311 329 317 351 350 40 79 96 122 129 128 120 75 118 141 120 114 80 79 109 266 227 243 154 145 15 52 105 118 138 149 187 219 73 70 80 78 77 71 62 47 41 27 20 25 21 24 17 60 60 56 54 60
317 322 26 21 44 15 76 91 98 102 100 70 91 96 117 123 93 103 116 138 151 218 217 228 178 143 136 97 143 181 169 162 158 213 177 102 91 78 86 76 59 48 48 42 46 52 41 30 37 70 70 66 63 60
325 57 11 56 56 104 163 135 124 37 46 114 112 88 81 94 137 143 167 177 184 208 20 76 11 99 88 83 95 258 128 74 190 133 131 86 90 71 73 74 68 56 53 55 54 56 50 38 54 69 75 75 78 86
76 34 46 100 74 79 139 144 117 98 107 98 67 69 244 349 103 113 165 206 103 23 30 20 60 98 94 47 21 259 145 177 121 59 78 70 99 72 60 73 66 58 61 64 60 64 66 57 55 62 63 66 75 72
79 70 87 107 108 78 99 135 171 127 84 74 77 45 50 36 56 34 22 36 42 23 18 1 60 80 59 101 330 99 21 127 154 104 87 96 90 80 69 76 81 70 67 71 70 66 64 66 67 70 76 83 82 79
69 73 91 104 97 86 71 72 85 78 53 54 30 54 68 90 53 21 353 83 38 312 321 103 89 61 32 92 13 117 40 65 35 71 80 86 83 79 66 68 81 78 76 77 79 80 84 82 78 73 73 79 83 83
148 90 80 91 90 85 84 76 56 71 62 61 37 53 0 90 39 11 8 15 8 326 287 274 109 82 49 50 50 20 8 49 40 88 104 90 78 81 79 74 65 85 88 86 88 87 90 90 90 87 80 77 79 84
119 87 123 93 78 84 74 72 52 51 61 53 44 5 43 61 52 355 346 328 277 249 51 53 61 28 102 70 54 14 33 99 99 83 74 90 104 86 80 92 91 90 85 84 97 106 106 107 99 93 87 80 80 79
91 122 119 101 79 57 48 49 77 73 64 39 72 55 52 16 26 10 343 354 7 47 48 57 54 39 32 49 81 97 78 73 70 85 81 68 71 87 96 96 105 113 117 120 120 119 115 108 103 107 110 104 96 89
134 146 123 85 74 78 68 47 73 84 70 109 107 86 47 53 29 13 358 354 45 39 65 52 58 45 23 49 108 110 112 112 110 94 83 93 106 104 102 98 87 87 103 107 97 82 84 104 119 128 127 122 121 121
115 114 95 96 73 90 84 69 78 83 87 110 71 54 46 55 50 35 33 27 46 60 49 44 48 20 31 49 54 50 53 126 131 129 130 115 125 149 145 132 130 124 117 115 110 103 92 80 77 83 94 102 104 101
89 81 85 77 57 56 85 91 69 108 138 98 163 158 109 80 51 36 43 11 47 41 69 77 81 59 47 47 53 60 45 51 89 90 107 105 96 96 84 67 104 117 113 108 96 87 91 86 93 103 101 99 103 105
92 86 85 47 73 61 66 21 108 130 88 134 145 83 95 61 49 38 58 37 64 31 22 78 83 74 53 39 38 54 73 72 70 66 59 82 69 51 59 88 91 76 72 83 94 91 91 109 110 110 110 110 113 111
82 51 52 64 73 64 128 213 91 128 105 128 109 75 55 53 81 113 74 56 75 52 84 89 89 101 93 80 67 58 69 71 65 77 81 74 73 74 67 51 81 98 86 85 101 103 102 100 111 121 122 119 130 123
63 54 47 64 73 96 57 33 58 65 59 73 75 66 45 79 119 71 76 73 122 150 126 163 143 123 98 71 56 37 38 89 76 57 81 98 92 86 87 82 74 73 94 109 111 105 102 112 105 128 146 148 150 135
73 343 61 40 73 86 86 64 42 66 91 89 78 62 13 59 73 79 98 129 102 75 67 80 82 96 113 125 96 58 38 38 96 77 41 46 82 127 115 101 82 58 63 118 112 109 101 99 101 103 110 117 118 124
73 321 41 46 337 97 134 112 112 106 90 71 82 149 68 72 69 77 84 140 117 80 58 39 93 105 71 71 77 54 27 22 95 82 54 50 47 47 43 142 98 61 46 57 138 126 117 115 108 93 108 112 97 117
79 38 357 317 25 80 73 51 49 76 87 108 156 124 93 77 94 118 101 79 97 85 72 60 71 98 105 94 85 72 61 81 89 94 93 68 60 57 76 92 83 59 58 65 64 130 142 137 141 163 160 111 131 69
67 43 90 341 49 20 85 58 58 82 96 356 63 54 99 121 134 108 107 114 110 101 89 83 89 94 96 101 104 93 77 88 112 111 100 86 69 59 64 75 77 56 41 50 84 95 94 116 127 104 116 164 164 197
61 75 77 33 47 43 27 47 86 31 318 59 106 93 97 61 70 110 119 125 127 122 115 111 108 111 106 99 89 71 52 53 62 58 323 132 109 76 74 61 64 57 27 56 54 24 38 89 94 114 111 96 113 133
71 83 88 55 61 51 10 40 103 9 32 80 96 98 85 79 85 116 128 147 135 118 125 126 148 142 149 143 125 89 60 69 78 72 87 101 104 104 100 87 70 49 43 83 67 56 76 68 55 36 304 72 340 331
111 97 79 63 83 57 92 83 73 68 53 76 61 92 103 122 58 61 91 111 121 128 130 123 101 101 108 92 121 142 111 74 99 99 99 106 122 95 47 28 330 71 36 22 53 39 31 352 8 1 12 49 29 15
56 85 117 103 124 208 1 252 111 111 155 79 98 111 148 101 100 118 116 143 161 121 117 148 122 108 109 104 107 111 118 134 143 137 128 130 130 112 91 57 45 338 321 155 38 10 8 352 354 7 17 24 0 347
82 79 87 101 112 189 234 121 92 86 48 61 49 64 50 103 128 142 159 81 62 151 136 135 136 137 136 138 135 129 145 124 108 113 114 125 131 162 154 171 193 119 95 64 34 28 19 350 350 353 354 346 328 319